Location: Praha
(50.0755°N, 14.4378°E)
Time: 16:26:08
(UTC+01:00)

ISS - Pass Details

Date: 25 January 2020
Orbit: 415 x 422 km, 51.6° (Epoch: 26 February)

Event Time Altitude Azimuth Distance (km) Brightness Sun altitude
Rises 17:33:06 0° 224° (SW) 2,370 1.4 -8.1°
Reaches altitude 10° 17:35:18 10° 215° (SW) 1,508 0.0 -8.4°
Maximum altitude 17:38:24 34° 148° (SSE) 721 -2.7 -8.9°
Enters shadow 17:41:06 13° 85° (E) 1,361 -1.8 -9.3°
